Regional Weather Roundup
Issued by NWS

Home | Current Version | Previous Version | Text Only | Print | Product List | Glossary On
Versions: 1 2 3 4 5 6 7 8 9 10 11 12 13 14 15 16 17 18 19 20 21 22 23 24 25 26 27 28 29 30 31 32 33 34 35 36 37 38 39 40 41 42 43 44 45 46 47 48 49 50
000
ASUS43 KTOP 260759
RWRKS

WEATHER ROUNDUP FOR KANSAS
NATIONAL WEATHER SERVICE GOODLAND KS
300 AM CDT TUE JUL 26 2016

NOTE:  "FAIR" INDICATES FEW OR NO CLOUDS BELOW 12,000 FEET WITH NO
SIGNIFICANT WEATHER AND/OR OBSTRUCTIONS TO VISIBILITY.

KSZ001>006-013>018-027>032-041>047-260900-
NORTHWEST KANSAS

CITY           SKY/WX    TMP DP  RH WIND       PRES   REMARKS
GOODLAND       PTCLDY    67  64  90 SE10      30.13S
HAYS           PTCLDY    70  61  73 E6        30.10S
HILL CITY      PTCLDY    67  65  93 E5        30.10F
RUSSELL        PTCLDY    68  67  96 E6        30.08F
$$

KSZ061>065-074>080-084>089-260900-
SOUTHWEST KANSAS

CITY           SKY/WX    TMP DP  RH WIND       PRES   REMARKS
DODGE CITY     CLEAR     68  67  96 SE6       30.11S FOG
ELKHART          N/A     70  62  76 SE12        N/A
GARDEN CITY    MOCLDY    69  67  93 SE14      30.11S
GREAT BEND     CLEAR     70  63  78 E6        30.08F
LIBERAL        PTCLDY    72  64  78 E12       30.12F
$$

KSZ066>073-081>083-090>101-260900-
SOUTHEAST KANSAS

CITY           SKY/WX    TMP DP  RH WIND       PRES   REMARKS
CHANUTE        PTCLDY    75  72  90 NE3       30.02F
COFFEYVILLE    MOCLDY    76  74  93 NE5       30.00F
HUTCHINSON     CLEAR     71  69  93 CALM      30.06F
NEWTON         CLOUDY    72  71  97 E3        30.07S
PARSONS          N/A    N/A N/A N/A MISG      30.02F
WICHITA INTL   CLOUDY    76  72  87 NE5       30.05S
WICHITA JABRA  CLOUDY    72  71  97 NE3       30.05S
WINFIELD       MOCLDY    75  72  90 NE5       30.04F
$$

KSZ007>012-019>026-033>040-048>060-102>105-260900-
NORTHEAST KANSAS

CITY           SKY/WX    TMP DP  RH WIND       PRES   REMARKS
CONCORDIA      CLEAR     65  62  90 CALM      30.09F
EMPORIA        CLOUDY    74  72  93 E3        30.04F
LAWRENCE       CLOUDY    68  66  93 CALM      30.04F
MANHATTAN      CLEAR     67  65  93 CALM      30.05F
OLATHE IND     CLOUDY    74  69  85 E3        30.05F
OLATHE EXE     CLOUDY    73  68  84 E3        30.05F
SALINA         CLEAR     71  68  90 NW6       30.07F
TOPEKA BILLARD CLEAR     69  67  93 CALM      30.04F
TOPEKA FORBES  CLOUDY    72  67  84 CALM      30.05F
$$



USA.gov is the U.S. government's official web portal to all federal, state and local government web resources and services.